STARLINK-35912

Last updated on Fri Dec 19 2025 00:02:08 GMT+0000 (Coordinated Universal Time)

1 66882U 25283E 25352.58336806 -.01287882 00000+0 -80591-2 0 9998 2 66882 53.1555 44.4321 0001373 65.0875 61.5155 15.79041816 3366
UTC large
Height (km)
Speed (km/s)
/
Latitude / Longitude
Inclination (degrees)
Orbital Period (minutes)
Azimuth
Elevation
Range (km)
Doppler Factor

Next 0 passes for location: London (51.5072 / 0.1276)

Sorry there are no passes over London.